User: anonymous   Login
Location: Christchurch
(43.5330°S, 172.6330°E)
Time: 06:44:11
(UTC+12:00)
Language:

Intelsat 806 - Orbit

View from above orbital plane
View from above orbital plane
View from above satellite
View from above satellite

Ground track
Ground track

The orbit data is extracted from the following two-line orbital elements,

1 25239U 98014A   19232.84476611 -.00000130  00000-0  00000+0 0  9991
2 25239   0.8627  99.9123 0004520  35.7519 145.1672  0.99081024 78622
Epoch (UTC): 20 August 2019 20:16:27
Eccentricity: 0.0004520
inclination: 0.8627°
perigee height: 36104 km
apogee height: 36142 km
right ascension of ascending node: 99.9123°
argument of perigee: 35.7519°
revolutions per day: 0.99081024
mean anomaly at epoch: 145.1672°
orbit number at epoch: 7862

The dashed part of the orbit path shows where the satellite is in the earth's shadow,  

DLR